Location: C.E.K. Mees Observatory
(42.7003°N, 77.4088°W)
Time: 04:52:06
(UTC-05:00)

Envisat - Pass Details

Date: 28 November 2019
Orbit: 764 x 766 km, 98.1° (Epoch: 08 December)

Event Time Altitude Azimuth Distance (km) Brightness Sun altitude
Rises 05:27:39 0° 36° (NE) 3,237 6.6 -19.6°
Reaches altitude 10° 05:32:14 10° 75° (ENE) 2,303 6.4 -18.8°
Maximum altitude 05:33:19 11° 87° (E) 2,258 6.6 -18.6°
Drops below altitude 10° 05:34:23 10° 100° (E) 2,299 6.8 -18.4°
Sets 05:38:55 0° 138° (SE) 3,217 7.2 -17.6°
